GFSGL_500_temp_093.txt.gz
Temp
-13 -13 -13 -13 -13 -13 -13 -14 -14 -14 -14 -14 -15 -15 -15 -15 -16 -16 -16 -16 -16 -16 -15 -15 -15 -15 -15 -15 -15 -15 -15 -15 -15 -14 -15 -15 -15 -16 -16 -16 -16 -16 -16
-13 -13 -13 -13 -14 -14 -14 -14 -14 -15 -15 -15 -15 -15 -16 -16 -16 -16 -16 -16 -16 -15 -15 -15 -15 -15 -15 -15 -15 -15 -16 -16 -16 -16 -15 -16 -16 -17 -17 -17 -18 -18 -18
-13 -14 -14 -14 -14 -14 -15 -15 -15 -15 -16 -16 -16 -16 -16 -16 -16 -16 -16 -16 -16 -16 -16 -16 -15 -16 -16 -16 -16 -16 -16 -17 -17 -17 -16 -17 -18 -18 -18 -19 -19 -19 -20
-14 -15 -15 -15 -15 -15 -15 -16 -16 -16 -17 -17 -17 -17 -16 -16 -16 -16 -16 -16 -16 -16 -16 -17 -17 -17 -17 -17 -17 -17 -18 -18 -18 -19 -19 -19 -19 -19 -20 -21 -21 -21 -21
-15 -15 -15 -16 -16 -16 -16 -17 -17 -17 -17 -17 -16 -17 -17 -16 -16 -16 -16 -16 -16 -17 -17 -17 -17 -17 -18 -18 -18 -18 -19 -19 -20 -20 -20 -20 -20 -21 -21 -21 -22 -22 -22
-16 -16 -16 -17 -17 -17 -17 -17 -17 -17 -17 -17 -17 -17 -17 -17 -17 -17 -17 -17 -17 -17 -17 -17 -18 -19 -19 -19 -20 -20 -20 -21 -21 -21 -21 -21 -21 -21 -21 -22 -22 -23 -22
-16 -16 -17 -17 -17 -17 -17 -17 -17 -17 -17 -17 -17 -18 -18 -18 -18 -17 -18 -18 -18 -18 -19 -19 -19 -20 -20 -20 -20 -21 -21 -22 -22 -22 -22 -21 -22 -22 -23 -23 -23 -24 -24
-17 -17 -18 -18 -18 -17 -17 -17 -17 -17 -18 -18 -18 -18 -18 -18 -18 -19 -19 -19 -20 -20 -20 -20 -20 -20 -21 -21 -22 -23 -23 -23 -23 -23 -24 -23 -24 -23 -24 -24 -25 -24 -25
-18 -18 -18 -18 -17 -18 -18 -18 -18 -18 -18 -18 -18 -18 -18 -19 -19 -20 -20 -20 -20 -20 -20 -20 -21 -22 -23 -23 -24 -24 -24 -24 -24 -24 -24 -25 -25 -25 -25 -26 -26 -27 -27
-18 -18 -18 -18 -18 -18 -18 -19 -19 -19 -19 -19 -19 -20 -20 -21 -21 -21 -21 -21 -21 -20 -21 -22 -23 -23 -24 -24 -24 -24 -24 -25 -25 -25 -25 -26 -26 -26 -26 -27 -27 -28 -28
-18 -18 -18 -19 -19 -19 -19 -19 -19 -20 -20 -21 -21 -21 -22 -21 -21 -21 -21 -21 -21 -22 -23 -23 -24 -24 -24 -25 -25 -25 -26 -26 -26 -27 -27 -27 -27 -28 -28 -28 -28 -28 -28
-19 -19 -19 -20 -20 -20 -20 -21 -21 -22 -22 -22 -22 -22 -22 -22 -22 -22 -22 -22 -23 -23 -23 -23 -24 -25 -26 -26 -27 -26 -26 -27 -28 -28 -29 -29 -28 -29 -29 -29 -28 -28 -28
-20 -20 -20 -21 -21 -22 -22 -22 -22 -22 -23 -22 -22 -22 -22 -22 -22 -22 -23 -23 -24 -24 -24 -25 -26 -27 -28 -28 -28 -28 -28 -29 -29 -29 -29 -29 -29 -29 -29 -29 -28 -28 -28
-21 -22 -22 -23 -23 -23 -23 -23 -23 -23 -23 -23 -23 -22 -22 -22 -23 -23 -24 -24 -25 -26 -27 -27 -28 -29 -29 -29 -30 -29 -29 -29 -30 -30 -30 -30 -30 -30 -30 -30 -29 -29 -29
-23 -23 -23 -23 -23 -23 -23 -23 -23 -23 -23 -23 -23 -23 -23 -23 -24 -25 -25 -26 -27 -27 -28 -29 -30 -30 -30 -30 -30 -30 -31 -31 -31 -31 -31 -31 -31 -31 -30 -30 -30 -31 -31
-24 -24 -24 -24 -24 -24 -23 -23 -24 -23 -23 -23 -23 -24 -24 -25 -26 -26 -27 -28 -29 -29 -30 -30 -31 -31 -31 -32 -32 -32 -32 -32 -32 -32 -32 -32 -32 -32 -32 -32 -32 -32 -32
-24 -24 -24 -24 -24 -24 -24 -24 -24 -24 -24 -25 -25 -26 -26 -27 -28 -28 -29 -30 -30 -30 -31 -31 -32 -32 -32 -33 -32 -32 -32 -32 -32 -32 -32 -32 -32 -33 -33 -33 -33 -33 -33
-24 -25 -25 -25 -25 -25 -24 -24 -24 -24 -24 -25 -27 -28 -28 -28 -29 -30 -30 -31 -31 -32 -32 -32 -33 -33 -33 -33 -33 -33 -33 -33 -33 -33 -33 -33 -34 -34 -34 -34 -34 -34 -34
-25 -25 -25 -25 -25 -25 -25 -25 -26 -26 -27 -28 -28 -29 -29 -30 -30 -31 -31 -32 -32 -32 -33 -33 -33 -33 -33 -33 -33 -33 -34 -34 -34 -34 -34 -34 -34 -34 -34 -34 -34 -34 -34
-26 -26 -26 -26 -27 -27 -27 -28 -28 -29 -30 -30 -29 -30 -31 -31 -31 -32 -32 -33 -33 -33 -34 -34 -33 -33 -34 -34 -34 -34 -34 -34 -34 -34 -34 -34 -34 -34 -34 -34 -34 -34 -34
-27 -27 -27 -28 -29 -29 -30 -30 -30 -31 -30 -30 -31 -31 -32 -32 -32 -33 -33 -33 -33 -34 -34 -34 -34 -34 -34 -34 -34 -34 -34 -34 -34 -34 -34 -34 -34 -34 -34 -34 -34 -34 -34
-28 -29 -29 -30 -31 -31 -31 -31 -32 -32 -31 -31 -32 -33 -33 -33 -33 -33 -34 -34 -34 -34 -34 -34 -34 -34 -35 -35 -35 -35 -34 -34 -34 -34 -34 -34 -34 -34 -34 -34 -34 -34 -35
-30 -30 -31 -31 -31 -32 -32 -32 -32 -32 -32 -32 -33 -33 -34 -33 -34 -35 -35 -35 -35 -34 -34 -34 -34 -35 -35 -35 -35 -35 -35 -35 -34 -34 -35 -35 -35 -35 -35 -35 -35 -35 -35
-31 -31 -31 -32 -32 -32 -32 -33 -32 -32 -33 -34 -34 -34 -34 -35 -35 -35 -36 -35 -35 -34 -34 -34 -35 -35 -35 -35 -35 -35 -35 -35 -35 -35 -35 -35 -35 -35 -35 -35 -35 -35 -35
-32 -32 -32 -32 -32 -33 -33 -33 -33 -33 -34 -34 -35 -35 -35 -35 -35 -35 -35 -34 -34 -34 -34 -35 -35 -35 -35 -35 -35 -35 -35 -35 -35 -35 -35 -35 -35 -35 -35 -35 -35 -35 -35
-33 -33 -33 -32 -33 -33 -33 -33 -34 -34 -34 -34 -35 -35 -35 -34 -34 -34 -34 -34 -34 -34 -35 -35 -35 -35 -35 -35 -35 -35 -35 -35 -35 -35 -35 -35 -35 -35 -35 -36 -36 -36 -36

GFSGL_500_temp_096.txt.gz
Temp
-12 -12 -13 -13 -13 -13 -13 -13 -13 -13 -14 -14 -14 -15 -15 -15 -15 -16 -16 -16 -16 -16 -16 -16 -16 -16 -16 -16 -16 -16 -16 -17 -16 -15 -15 -15 -16 -16 -16 -17 -17 -18 -18
-13 -13 -13 -13 -13 -13 -13 -14 -14 -14 -14 -15 -15 -15 -15 -16 -16 -16 -16 -16 -16 -16 -16 -16 -16 -16 -16 -16 -16 -16 -17 -17 -17 -17 -16 -17 -17 -17 -17 -18 -18 -19 -19
-13 -13 -13 -13 -13 -14 -14 -14 -15 -15 -15 -15 -15 -16 -16 -16 -17 -17 -16 -17 -17 -17 -17 -17 -16 -16 -16 -16 -17 -17 -17 -18 -19 -19 -18 -18 -18 -19 -19 -20 -20 -20 -20
-14 -14 -14 -14 -14 -15 -15 -15 -15 -15 -16 -16 -16 -17 -17 -17 -17 -17 -17 -17 -17 -16 -16 -16 -16 -16 -17 -17 -17 -18 -19 -19 -19 -20 -20 -19 -19 -20 -20 -20 -21 -21 -22
-14 -14 -15 -15 -15 -15 -16 -16 -16 -16 -16 -17 -17 -17 -17 -17 -17 -17 -17 -17 -17 -17 -17 -17 -18 -18 -18 -19 -19 -19 -20 -20 -20 -20 -20 -20 -20 -21 -22 -22 -23 -23 -23
-15 -15 -15 -16 -16 -16 -16 -16 -16 -16 -17 -18 -17 -17 -17 -17 -17 -17 -17 -17 -17 -17 -18 -18 -19 -19 -20 -20 -20 -20 -20 -20 -20 -21 -21 -22 -22 -23 -23 -23 -23 -24 -24
-16 -16 -16 -17 -17 -17 -17 -17 -17 -17 -18 -18 -18 -17 -18 -18 -18 -18 -18 -18 -19 -19 -19 -20 -20 -21 -21 -21 -21 -21 -21 -21 -22 -23 -23 -23 -23 -23 -23 -24 -24 -24 -24
-17 -17 -17 -17 -17 -17 -17 -17 -18 -18 -18 -18 -18 -18 -18 -19 -18 -18 -18 -19 -19 -20 -21 -21 -22 -21 -21 -21 -21 -21 -21 -22 -22 -23 -24 -24 -25 -25 -25 -25 -25 -25 -25
-17 -17 -17 -17 -17 -18 -18 -18 -18 -18 -18 -18 -19 -19 -19 -19 -19 -19 -19 -20 -21 -21 -22 -22 -22 -22 -22 -21 -21 -22 -22 -23 -23 -24 -25 -25 -26 -26 -26 -27 -27 -27 -27
-17 -17 -18 -18 -18 -19 -19 -18 -19 -19 -19 -19 -19 -19 -19 -19 -20 -21 -22 -21 -22 -22 -22 -22 -22 -22 -22 -22 -22 -23 -24 -24 -25 -26 -26 -27 -28 -28 -28 -28 -28 -28 -29
-18 -18 -18 -19 -19 -19 -19 -19 -19 -19 -19 -19 -19 -20 -20 -21 -21 -22 -22 -23 -23 -23 -23 -22 -22 -22 -23 -23 -24 -25 -26 -26 -27 -27 -28 -28 -29 -29 -29 -29 -29 -29 -29
-18 -19 -19 -19 -19 -19 -19 -20 -20 -19 -20 -20 -21 -21 -22 -22 -23 -23 -23 -23 -23 -23 -23 -23 -23 -23 -24 -25 -26 -27 -28 -28 -28 -29 -29 -29 -29 -29 -30 -30 -30 -30 -30
-19 -19 -19 -19 -20 -20 -20 -20 -20 -21 -21 -22 -22 -22 -23 -23 -23 -23 -23 -23 -23 -23 -23 -24 -24 -25 -26 -27 -28 -29 -29 -30 -30 -30 -30 -30 -31 -31 -31 -31 -31 -31 -30
-20 -20 -20 -20 -21 -21 -22 -22 -22 -22 -23 -23 -23 -23 -23 -23 -24 -24 -24 -24 -24 -24 -24 -26 -27 -28 -29 -29 -30 -30 -31 -31 -31 -32 -32 -32 -32 -32 -32 -32 -32 -31 -31
-21 -21 -21 -21 -22 -23 -23 -23 -23 -23 -24 -24 -24 -24 -24 -24 -24 -24 -24 -24 -25 -25 -26 -28 -28 -29 -30 -30 -31 -32 -32 -33 -33 -33 -33 -33 -33 -33 -33 -32 -33 -33 -33
-21 -22 -23 -23 -23 -24 -24 -24 -24 -24 -24 -25 -25 -25 -24 -24 -24 -25 -25 -26 -26 -27 -28 -29 -30 -31 -31 -32 -32 -33 -33 -33 -33 -34 -33 -33 -33 -33 -33 -33 -34 -34 -34
-23 -24 -24 -24 -24 -24 -24 -24 -24 -25 -25 -25 -25 -25 -25 -25 -25 -26 -27 -28 -28 -29 -30 -31 -31 -32 -32 -33 -33 -33 -33 -34 -34 -34 -34 -34 -34 -34 -34 -34 -34 -34 -34
-24 -24 -25 -24 -24 -25 -25 -25 -25 -25 -25 -26 -26 -26 -26 -26 -27 -28 -28 -29 -29 -31 -32 -32 -33 -33 -33 -34 -34 -34 -34 -34 -34 -34 -34 -34 -34 -34 -35 -34 -34 -34 -34
-25 -25 -25 -25 -25 -25 -26 -26 -26 -26 -26 -26 -26 -27 -28 -28 -29 -29 -29 -30 -31 -32 -33 -33 -34 -34 -34 -34 -34 -34 -34 -34 -35 -35 -35 -35 -35 -35 -35 -34 -34 -34 -34
-25 -25 -25 -26 -26 -26 -26 -27 -27 -27 -27 -28 -28 -29 -29 -29 -30 -30 -30 -31 -32 -33 -33 -34 -34 -34 -34 -35 -34 -34 -35 -35 -35 -35 -35 -35 -35 -35 -35 -35 -35 -35 -35
-26 -26 -26 -27 -27 -27 -27 -27 -28 -28 -29 -30 -30 -31 -31 -30 -30 -30 -31 -33 -33 -33 -34 -35 -35 -35 -35 -35 -35 -35 -35 -35 -35 -35 -35 -35 -35 -35 -35 -35 -35 -35 -35
-27 -27 -28 -28 -28 -28 -28 -29 -30 -30 -31 -31 -32 -32 -31 -31 -31 -32 -33 -34 -34 -35 -35 -35 -35 -36 -35 -35 -35 -35 -35 -35 -35 -35 -35 -35 -35 -35 -35 -35 -35 -35 -35
-28 -28 -29 -29 -29 -29 -30 -31 -31 -31 -32 -32 -32 -32 -32 -32 -32 -33 -34 -35 -35 -36 -36 -36 -36 -35 -35 -35 -35 -35 -35 -35 -35 -35 -35 -35 -35 -35 -35 -35 -35 -35 -35
-29 -29 -30 -30 -31 -31 -31 -32 -32 -32 -32 -32 -32 -32 -33 -33 -34 -34 -34 -35 -35 -36 -36 -36 -35 -35 -35 -35 -35 -35 -35 -35 -35 -36 -36 -35 -35 -35 -35 -35 -35 -35 -35
-31 -31 -31 -31 -32 -32 -32 -32 -32 -32 -32 -33 -32 -33 -33 -34 -34 -34 -35 -35 -35 -35 -35 -35 -35 -35 -35 -35 -35 -35 -36 -36 -36 -36 -36 -36 -36 -36 -36 -36 -36 -36 -35
-32 -32 -32 -32 -32 -32 -32 -33 -33 -33 -33 -33 -33 -33 -34 -34 -34 -35 -35 -35 -35 -35 -35 -35 -35 -35 -35 -35 -35 -35 -35 -35 -36 -36 -36 -36 -36 -36 -36 -36 -36 -36 -36

GFSGL_500_temp_102.txt.gz
Temp
-12 -11 -11 -12 -12 -13 -13 -13 -13 -13 -13 -13 -14 -14 -14 -14 -14 -15 -15 -16 -16 -16 -17 -17 -17 -18 -18 -17 -17 -17 -17 -17 -17 -16 -17 -17 -17 -17 -17 -17 -18 -18 -19
-12 -12 -12 -13 -13 -13 -13 -13 -14 -14 -14 -14 -14 -14 -14 -15 -15 -16 -16 -16 -17 -17 -17 -18 -18 -18 -18 -18 -17 -17 -17 -18 -17 -17 -17 -17 -18 -18 -18 -19 -19 -20 -21
-13 -13 -13 -13 -14 -14 -14 -14 -14 -14 -14 -15 -15 -15 -15 -16 -16 -16 -17 -17 -17 -18 -18 -18 -18 -18 -18 -17 -17 -17 -18 -18 -18 -18 -18 -18 -19 -20 -20 -21 -21 -21 -21
-14 -14 -14 -14 -14 -14 -14 -14 -14 -15 -15 -15 -16 -16 -16 -16 -16 -17 -17 -17 -17 -18 -18 -18 -18 -18 -17 -17 -18 -18 -18 -18 -19 -19 -19 -20 -21 -21 -22 -22 -21 -22 -22
-14 -14 -15 -15 -15 -15 -15 -15 -15 -15 -16 -16 -16 -17 -16 -17 -17 -17 -17 -17 -18 -18 -18 -18 -18 -18 -18 -18 -18 -19 -19 -19 -20 -21 -21 -22 -22 -22 -22 -22 -22 -22 -22
-15 -15 -15 -15 -15 -15 -15 -16 -16 -16 -17 -17 -17 -17 -17 -17 -17 -17 -17 -18 -18 -18 -18 -18 -18 -18 -18 -19 -19 -20 -20 -21 -22 -22 -23 -23 -23 -22 -22 -23 -23 -23 -23
-16 -16 -15 -16 -16 -16 -16 -16 -17 -17 -17 -17 -17 -18 -18 -17 -17 -17 -18 -18 -19 -19 -18 -18 -18 -19 -19 -19 -20 -21 -22 -23 -23 -23 -23 -23 -23 -23 -24 -24 -25 -26 -26
-16 -16 -16 -16 -17 -17 -17 -17 -17 -18 -18 -18 -18 -18 -18 -18 -18 -18 -18 -19 -19 -19 -18 -19 -19 -19 -20 -20 -21 -22 -23 -23 -24 -24 -24 -24 -24 -24 -25 -26 -27 -28 -29
-17 -17 -17 -17 -17 -17 -17 -18 -18 -18 -18 -18 -18 -18 -18 -18 -18 -18 -19 -19 -19 -19 -19 -20 -20 -21 -22 -22 -23 -23 -24 -24 -24 -24 -24 -24 -25 -26 -27 -29 -30 -30 -30
-17 -17 -18 -18 -17 -18 -18 -18 -18 -18 -18 -18 -18 -19 -19 -19 -19 -20 -19 -19 -19 -20 -20 -21 -21 -22 -23 -23 -24 -24 -24 -24 -24 -24 -25 -26 -27 -28 -30 -30 -31 -31 -32
-18 -18 -18 -18 -18 -18 -18 -18 -18 -18 -19 -19 -19 -19 -19 -20 -20 -20 -20 -20 -20 -20 -21 -22 -23 -23 -24 -24 -24 -24 -25 -25 -25 -25 -26 -27 -29 -30 -31 -32 -32 -33 -33
-18 -18 -18 -18 -18 -18 -18 -18 -18 -19 -19 -20 -20 -20 -20 -20 -20 -20 -20 -20 -21 -21 -22 -23 -24 -24 -24 -25 -25 -25 -25 -25 -26 -27 -28 -30 -31 -32 -32 -33 -33 -33 -33
-18 -18 -18 -18 -18 -18 -19 -19 -19 -19 -20 -20 -20 -20 -20 -20 -20 -21 -21 -22 -22 -23 -24 -24 -25 -25 -25 -25 -25 -26 -26 -26 -27 -28 -30 -32 -33 -33 -34 -34 -34 -34 -34
-19 -19 -19 -18 -19 -19 -20 -20 -20 -20 -20 -20 -20 -21 -21 -21 -22 -22 -22 -23 -24 -24 -25 -25 -26 -26 -26 -26 -26 -26 -27 -27 -28 -30 -32 -33 -34 -34 -34 -34 -35 -35 -35
-19 -19 -19 -19 -20 -20 -20 -20 -21 -20 -21 -21 -21 -21 -21 -22 -22 -23 -24 -24 -25 -25 -25 -26 -26 -27 -27 -27 -27 -27 -27 -28 -30 -33 -34 -34 -34 -34 -34 -35 -35 -35 -35
-19 -20 -20 -20 -20 -21 -20 -20 -21 -21 -21 -22 -22 -23 -23 -23 -24 -24 -25 -25 -25 -26 -26 -27 -27 -27 -27 -28 -28 -28 -29 -30 -32 -34 -34 -35 -35 -35 -35 -35 -35 -35 -35
-20 -20 -20 -21 -21 -21 -21 -21 -22 -22 -22 -22 -23 -24 -24 -25 -25 -25 -25 -26 -27 -27 -28 -28 -28 -28 -29 -29 -29 -29 -30 -32 -33 -34 -35 -35 -35 -35 -35 -35 -35 -35 -35
-21 -21 -21 -21 -22 -22 -22 -22 -22 -22 -23 -24 -25 -25 -25 -26 -26 -26 -27 -27 -28 -28 -28 -29 -29 -29 -30 -31 -31 -31 -32 -33 -34 -35 -36 -36 -36 -36 -36 -36 -36 -36 -35
-22 -22 -22 -22 -22 -22 -23 -23 -24 -24 -25 -26 -26 -26 -26 -27 -27 -28 -28 -29 -29 -29 -29 -30 -30 -31 -31 -32 -32 -32 -34 -34 -35 -36 -36 -36 -36 -36 -36 -36 -36 -36 -36
-22 -22 -22 -23 -23 -24 -24 -25 -26 -26 -26 -26 -26 -27 -27 -28 -28 -29 -29 -29 -30 -30 -30 -31 -31 -32 -32 -32 -32 -33 -34 -35 -36 -36 -37 -36 -36 -36 -36 -36 -36 -36 -36
-23 -23 -23 -24 -25 -25 -26 -26 -26 -27 -27 -27 -27 -28 -28 -29 -29 -29 -30 -30 -30 -31 -32 -32 -32 -33 -33 -33 -33 -34 -35 -35 -36 -37 -36 -36 -36 -36 -36 -36 -36 -36 -36
-25 -25 -25 -26 -26 -26 -27 -27 -27 -27 -27 -28 -29 -29 -30 -30 -30 -30 -30 -31 -31 -32 -32 -32 -33 -33 -33 -33 -33 -34 -35 -35 -36 -36 -36 -36 -36 -36 -36 -36 -36 -36 -36
-26 -26 -27 -27 -27 -27 -27 -27 -28 -28 -29 -30 -30 -30 -31 -31 -31 -31 -31 -32 -32 -33 -33 -33 -33 -33 -33 -33 -34 -35 -35 -35 -36 -36 -36 -36 -36 -36 -36 -36 -36 -36 -36
-27 -27 -27 -27 -28 -28 -28 -29 -29 -30 -31 -31 -31 -31 -31 -32 -32 -32 -32 -33 -33 -33 -33 -33 -33 -33 -33 -34 -35 -35 -35 -35 -35 -35 -35 -36 -36 -36 -36 -36 -36 -36 -36
-28 -28 -28 -28 -29 -29 -29 -30 -31 -31 -31 -32 -32 -32 -32 -32 -32 -32 -33 -33 -33 -33 -33 -34 -33 -34 -34 -35 -35 -36 -36 -35 -35 -35 -35 -35 -36 -36 -36 -36 -36 -36 -37
-29 -29 -29 -30 -30 -30 -31 -31 -32 -32 -32 -32 -32 -32 -33 -33 -33 -33 -33 -33 -33 -34 -34 -34 -34 -34 -35 -35 -35 -36 -36 -36 -36 -35 -35 -36 -36 -36 -36 -36 -36 -36 -37

GFSGL_500_temp_105.txt.gz
Temp
-12 -11 -11 -12 -11 -12 -12 -12 -13 -13 -13 -13 -13 -14 -14 -14 -14 -15 -15 -15 -16 -16 -16 -16 -17 -17 -17 -18 -18 -18 -18 -18 -17 -17 -17 -17 -18 -18 -18 -18 -18 -19 -20
-12 -12 -12 -12 -12 -12 -12 -13 -13 -14 -14 -14 -14 -14 -14 -15 -15 -15 -16 -16 -16 -16 -17 -17 -17 -17 -18 -18 -18 -18 -18 -18 -18 -17 -18 -18 -18 -18 -18 -19 -19 -21 -21
-12 -12 -12 -12 -12 -12 -13 -14 -14 -14 -14 -14 -14 -15 -15 -15 -16 -16 -16 -16 -17 -17 -17 -17 -17 -18 -18 -18 -18 -18 -18 -18 -18 -18 -18 -18 -18 -19 -19 -20 -21 -22 -22
-12 -12 -13 -13 -13 -14 -14 -14 -14 -15 -15 -15 -15 -15 -16 -16 -16 -17 -17 -17 -17 -18 -17 -18 -18 -18 -18 -18 -19 -18 -18 -18 -18 -18 -18 -19 -19 -20 -21 -22 -22 -23 -22
-13 -14 -14 -14 -14 -14 -15 -15 -15 -15 -16 -16 -16 -16 -16 -16 -17 -17 -18 -18 -18 -18 -18 -18 -18 -18 -19 -19 -19 -18 -18 -18 -19 -19 -19 -20 -21 -22 -23 -23 -23 -23 -23
-14 -14 -15 -15 -15 -15 -15 -15 -15 -16 -16 -16 -16 -17 -17 -17 -17 -18 -18 -18 -18 -18 -18 -19 -19 -19 -19 -19 -19 -19 -19 -19 -20 -20 -21 -22 -23 -23 -24 -24 -24 -23 -23
-15 -15 -16 -16 -16 -16 -16 -16 -16 -16 -16 -17 -17 -17 -18 -18 -18 -18 -18 -18 -18 -19 -19 -19 -19 -19 -19 -19 -19 -19 -20 -20 -21 -22 -22 -23 -24 -24 -24 -24 -25 -25 -26
-16 -16 -16 -16 -16 -16 -16 -16 -17 -17 -17 -18 -18 -18 -18 -18 -18 -18 -18 -19 -19 -19 -19 -19 -19 -19 -19 -19 -20 -20 -21 -22 -22 -23 -24 -24 -25 -25 -25 -25 -25 -27 -29
-16 -17 -17 -17 -16 -16 -17 -17 -17 -18 -18 -19 -18 -18 -18 -18 -18 -18 -19 -19 -19 -19 -19 -20 -19 -19 -20 -20 -20 -21 -22 -23 -24 -24 -25 -25 -25 -25 -25 -26 -28 -30 -31
-17 -17 -17 -17 -17 -17 -17 -18 -19 -19 -19 -18 -18 -18 -19 -19 -19 -19 -19 -19 -19 -20 -20 -20 -20 -20 -20 -21 -22 -23 -23 -24 -24 -25 -25 -26 -26 -26 -26 -28 -30 -32 -32
-17 -17 -17 -17 -18 -18 -18 -19 -19 -19 -18 -18 -19 -19 -19 -19 -19 -19 -19 -19 -20 -20 -20 -20 -21 -21 -22 -23 -24 -24 -24 -25 -25 -26 -26 -26 -26 -27 -28 -30 -32 -33 -34
-18 -18 -18 -18 -18 -18 -18 -18 -18 -18 -18 -19 -19 -20 -20 -20 -20 -20 -20 -20 -20 -20 -21 -21 -22 -23 -23 -24 -25 -25 -25 -26 -26 -27 -27 -27 -27 -28 -30 -32 -33 -34 -34
-18 -18 -18 -18 -18 -18 -18 -18 -18 -19 -19 -20 -20 -20 -20 -20 -20 -21 -21 -21 -21 -21 -22 -23 -24 -24 -25 -25 -25 -25 -26 -27 -27 -27 -28 -28 -29 -30 -32 -34 -34 -35 -35
-18 -18 -18 -19 -19 -19 -19 -19 -19 -19 -20 -20 -20 -20 -21 -21 -21 -21 -21 -22 -22 -23 -23 -25 -25 -25 -26 -26 -26 -27 -27 -28 -28 -28 -29 -29 -30 -32 -33 -34 -35 -35 -35
-19 -19 -19 -19 -19 -19 -19 -19 -19 -20 -20 -20 -20 -21 -21 -21 -22 -22 -22 -22 -23 -24 -25 -26 -26 -26 -26 -27 -28 -28 -28 -29 -29 -29 -30 -31 -32 -33 -34 -35 -35 -35 -35
-19 -19 -19 -20 -20 -20 -20 -20 -20 -20 -20 -21 -21 -21 -22 -22 -22 -22 -23 -24 -25 -25 -26 -26 -26 -27 -28 -28 -29 -29 -29 -30 -30 -30 -31 -32 -32 -33 -35 -36 -36 -36 -36
-20 -20 -20 -20 -20 -20 -21 -21 -21 -21 -21 -21 -22 -22 -22 -22 -23 -23 -24 -25 -26 -26 -26 -27 -28 -28 -29 -29 -30 -30 -30 -31 -31 -32 -33 -33 -33 -34 -36 -36 -36 -36 -36
-20 -20 -20 -20 -20 -21 -21 -21 -21 -21 -22 -22 -22 -23 -23 -23 -24 -25 -26 -26 -26 -27 -27 -28 -29 -30 -30 -30 -30 -31 -31 -32 -32 -33 -33 -34 -34 -35 -36 -36 -36 -36 -36
-20 -20 -21 -21 -21 -21 -21 -22 -22 -22 -23 -23 -23 -23 -24 -25 -26 -26 -27 -27 -27 -28 -29 -30 -30 -30 -30 -31 -32 -32 -32 -32 -33 -33 -33 -34 -35 -35 -36 -36 -37 -36 -36
-21 -21 -22 -22 -22 -22 -22 -23 -23 -23 -23 -24 -25 -26 -27 -27 -27 -27 -27 -28 -29 -30 -30 -31 -31 -31 -31 -32 -32 -32 -33 -33 -33 -33 -33 -35 -36 -36 -37 -37 -36 -36 -36
-22 -23 -23 -23 -23 -23 -23 -24 -24 -25 -25 -26 -27 -27 -27 -27 -27 -28 -29 -30 -31 -31 -31 -31 -31 -32 -32 -32 -33 -33 -33 -33 -33 -33 -34 -36 -36 -36 -37 -36 -36 -36 -36
-23 -23 -23 -23 -24 -24 -25 -25 -26 -27 -27 -27 -27 -27 -28 -28 -29 -30 -31 -31 -31 -31 -32 -32 -32 -32 -33 -33 -33 -33 -34 -34 -33 -34 -35 -36 -36 -36 -36 -36 -36 -36 -36
-23 -24 -25 -25 -26 -26 -26 -27 -27 -27 -28 -28 -28 -28 -29 -29 -30 -31 -32 -32 -32 -32 -32 -32 -32 -33 -33 -33 -33 -33 -34 -34 -34 -35 -35 -35 -36 -36 -36 -36 -36 -36 -36
-24 -25 -26 -26 -27 -27 -28 -28 -28 -29 -29 -29 -29 -30 -30 -31 -32 -32 -32 -32 -32 -33 -33 -33 -33 -33 -33 -33 -34 -34 -34 -34 -34 -35 -35 -36 -36 -36 -36 -36 -36 -36 -36
-26 -27 -27 -28 -28 -28 -29 -29 -29 -29 -30 -30 -30 -31 -31 -32 -32 -32 -33 -33 -33 -33 -33 -33 -33 -33 -34 -34 -34 -34 -34 -34 -35 -35 -36 -36 -36 -36 -36 -36 -36 -36 -36
-28 -28 -29 -29 -30 -30 -30 -30 -30 -31 -31 -31 -31 -32 -32 -32 -33 -33 -33 -33 -33 -33 -33 -34 -34 -34 -34 -34 -34 -34 -34 -35 -35 -36 -36 -36 -37 -37 -36 -36 -36 -36 -36